This demonstration page uses our WeatherBlox Daily Observations layout. Learn more.

Left ArrowRight Arrow

Hourly Observations for April 5, 2021

Temp ( °F °C ) Dew Point ( °F °C ) Humidity (%) Winds ( mph kmh ) Pressure ( in mb ) Visibility ( mi km ) Precip ( " mm )
12:53 am 00:53 Clear 48 8.9 37 2.8 66 66 Calm 30.17 1022 10 16 0.00 0.00
1:53 am 01:53 Clear 46 7.8 38 3.3 73 73 Calm 30.17 1022 10 16 0.00 0.00
2:53 am 02:53 Clear 45 7.2 39 3.9 80 80 Calm 30.16 1021 10 16 0.00 0.00
3:53 am 03:53 Clear 43 6.1 40 4.4 89 89 Calm 30.16 1021 10 16 0.00 0.00
4:53 am 04:53 Clear 44 6.7 38 3.3 79 79 Calm 30.16 1021 10 16 0.00 0.00
5:53 am 05:53 Clear 42 5.6 40 4.4 92 92 Calm 30.17 1022 10 16 0.00 0.00
6:53 am 06:53 Clear 41 5 38 3.3 89 89 Calm 30.18 1022 10 16 0.00 0.00
7:53 am 07:53 Sunny 42 5.6 40 4.4 92 92 Calm 30.19 1022 10 16 0.00 0.00
8:53 am 08:53 Sunny 49 9.4 40 4.4 71 71 Calm 30.20 1023 10 16 0.00 0.00
9:53 am 09:53 Sunny 58 14.4 42 5.6 56 56 Calm 30.19 1022 10 16 0.00 0.00
10:53 am 10:53 Sunny 68 20 40 4.4 36 36 Calm 30.19 1022 10 16 0.00 0.00
11:53 am 11:53 Sunny 72 22.2 34 1.1 25 25 Calm 30.17 1022 10 16 0.00 0.00
12:53 pm 12:53 Sunny 74 23.3 31 -0.6 20 20 Calm 30.15 1021 10 16 0.00 0.00
1:53 pm 13:53 Sunny 74 23.3 30 -1.1 20 20 VRB 6 9 30.13 1020 10 16 0.00 0.00
2:53 pm 14:53 Sunny 76 24.4 33 0.6 21 21 Calm 30.11 1020 10 16 0.00 0.00
3:53 pm 15:53 Sunny 77 25 31 -0.6 18 18 VRB 3 6 30.09 1019 10 16 0.00 0.00
4:53 pm 16:53 Sunny 78 25.6 33 0.6 19 19 Calm 30.06 1018 10 16 0.00 0.00
5:53 pm 17:53 Sunny 78 25.6 30 -1.1 17 17 Calm 30.04 1017 10 16 0.00 0.00
6:53 pm 18:53 Sunny 77 25 31 -0.6 18 18 Calm 30.04 1017 10 16 0.00 0.00
7:53 pm 19:53 Sunny 74 23.3 32 0 21 21 SW 5 7 30.05 1018 10 16 0.00 0.00
8:53 pm 20:53 Clear 64 17.8 39 3.9 40 40 Calm 30.06 1018 10 16 0.00 0.00
9:53 pm 21:53 Clear 61 16.1 40 4.4 46 46 Calm 30.07 1018 10 16 0.00 0.00
10:53 pm 22:53 Clear 58 14.4 43 6.1 58 58 W 3 6 30.08 1019 10 16 0.00 0.00
11:53 pm 23:53 Clear 55 12.8 42 5.6 62 62 Calm 30.07 1018 10 16 0.00 0.00

Powered by AerisWeather